Date String (YYYY-MM-DD hh:mm:ss) UTC,Instrument flags,Ambient pressure (hPa),Sample flow (lpm),Bypass flow (lpm),Sample temperature (°C),Ambient temperature (°C),ASC tube jacket temperature (°C),LED temperature (°C),Box temperature (°C),Sample RH (%),Span deviation,Mass concentration (μg/m³),Mass concentration (μg/m³),Mass concentration (μg/m³)
DateTimeUTC,F1_M11,P_M11,Q1_M11,Q2_M11,T1_M11,T2_M11,T3_M11,T4_M11,T5_M11,U1_M11,ZSPAN_M11,X0_M11,X2_M11,X1_M11
2022-05-13 12:00:00,,0826.0,4.99,0.00,26.8,26.0,00.0,35.9,28.5,08.0,0000.0,0007.49,0002.54,0001.40
2022-05-13 12:01:00,,0826.0,4.99,0.00,26.8,26.0,00.0,35.9,28.5,08.0,0000.0,0007.53,0002.58,0001.40
2022-05-13 12:02:00,,0825.9,5.01,0.00,26.7,26.0,00.0,35.9,28.5,07.9,0000.0,0007.54,0002.62,0001.39
2022-05-13 12:03:00,,0826.0,4.99,0.00,26.7,25.9,00.0,35.9,28.5,08.0,0000.0,0007.48,0002.60,0001.39
2022-05-13 12:04:00,,0825.9,4.99,0.00,26.7,26.0,00.0,35.9,28.5,08.0,0000.0,0007.54,0002.63,0001.40
2022-05-13 12:05:00,,0825.9,5.01,0.00,26.7,26.0,00.0,35.8,28.5,07.9,0000.0,0008.33,0002.55,0001.39
2022-05-13 12:06:00,,0825.9,4.99,0.00,26.7,26.0,00.0,35.8,28.5,07.9,0000.0,0008.15,0002.54,0001.39
2022-05-13 12:07:00,,0826.0,5.01,0.00,26.7,26.1,00.0,35.8,28.5,07.9,0000.0,0008.27,0002.59,0001.39
2022-05-13 12:08:00,,0826.0,5.00,0.00,26.8,26.1,00.0,35.8,28.6,07.9,0000.0,0007.81,0002.59,0001.39
2022-05-13 12:09:00,,0825.9,4.99,0.00,26.8,26.1,00.0,35.8,28.6,07.9,0000.0,0007.39,0002.53,0001.38
2022-05-13 12:10:00,,0826.0,5.01,0.00,26.8,26.1,00.0,35.8,28.6,07.9,0000.0,0007.67,0002.54,0001.39
2022-05-13 12:11:00,,0826.0,5.01,0.00,26.8,26.1,00.0,35.8,28.6,07.9,0000.0,0008.36,0002.57,0001.39
2022-05-13 12:12:00,,0825.9,5.01,0.00,26.8,26.2,00.0,35.8,28.6,07.9,0000.0,0008.26,0002.50,0001.39
2022-05-13 12:13:00,,0825.9,5.00,0.00,26.8,26.1,00.0,35.8,28.6,07.9,0000.0,0008.27,0002.45,0001.39
2022-05-13 12:14:00,,0825.9,4.99,0.00,26.8,26.1,00.0,35.8,28.5,07.8,0000.0,0008.46,0002.49,0001.38
2022-05-13 12:15:00,,0825.9,5.00,0.00,26.7,26.0,00.0,35.8,28.4,07.6,0000.0,0008.69,0002.54,0001.39
2022-05-13 12:16:00,,0826.0,5.01,0.00,26.7,25.9,00.0,35.8,28.4,07.5,0000.0,0007.97,0002.59,0001.40
2022-05-13 12:17:00,,0826.0,4.99,0.00,26.6,25.8,00.0,35.7,28.3,07.8,0000.0,0007.69,0002.53,0001.40
2022-05-13 12:18:00,,0826.0,5.02,0.00,26.6,25.8,00.0,35.7,28.4,07.9,0000.0,0007.32,0002.47,0001.40
2022-05-13 12:19:00,,0826.1,5.00,0.00,26.6,25.8,00.0,35.7,28.3,07.9,0000.0,0007.33,0002.52,0001.41
2022-05-13 12:20:00,,0826.1,4.99,0.00,26.6,25.8,00.0,35.7,28.3,07.9,0000.0,0007.38,0002.55,0001.42
2022-05-13 12:21:00,,0826.1,5.01,0.00,26.6,25.8,00.0,35.7,28.3,07.9,0000.0,0007.13,0002.57,0001.42
2022-05-13 12:22:00,,0826.1,5.00,0.00,26.6,25.8,00.0,35.7,28.3,07.9,0000.0,0005.74,0002.57,0001.42
2022-05-13 12:23:00,,0826.2,4.99,0.00,26.6,25.8,00.0,35.7,28.3,08.0,0000.0,0005.67,0002.60,0001.43
2022-05-13 12:24:00,,0826.2,5.01,0.00,26.6,25.8,00.0,35.7,28.4,08.1,0000.0,0005.64,0002.59,0001.42
2022-05-13 12:25:00,,0826.1,5.01,0.00,26.6,25.9,00.0,35.7,28.4,08.0,0000.0,0005.34,0002.51,0001.42
2022-05-13 12:26:00,,0826.1,4.99,0.00,26.6,25.9,00.0,35.7,28.4,08.0,0000.0,0006.02,0002.44,0001.40
2022-05-13 12:27:00,,0826.2,5.00,0.00,26.6,26.0,00.0,35.6,28.5,08.0,0000.0,0006.34,0002.41,0001.40
2022-05-13 12:28:00,,0826.2,5.00,0.00,26.7,26.0,00.0,35.6,28.5,07.9,0000.0,0006.56,0002.48,0001.40
2022-05-13 12:29:00,,0826.2,5.00,0.00,26.7,26.1,00.0,35.7,28.5,07.9,0000.0,0006.51,0002.47,0001.39
2022-05-13 12:30:00,,0826.2,5.01,0.00,26.7,26.1,00.0,35.7,28.6,07.8,0000.0,0006.43,0002.45,0001.38
2022-05-13 12:31:00,,0826.1,5.00,0.00,26.7,26.1,00.0,35.7,28.6,07.9,0000.0,0007.38,0002.48,0001.38
2022-05-13 12:32:00,,0826.1,5.00,0.00,26.7,26.1,00.0,35.7,28.6,07.8,0000.0,0007.77,0002.52,0001.39
2022-05-13 12:33:00,,0826.2,5.01,0.00,26.8,26.1,00.0,35.7,28.6,08.0,0000.0,0008.27,0002.47,0001.38
2022-05-13 12:34:00,,0826.2,5.00,0.00,26.8,26.1,00.0,35.7,28.6,07.9,0000.0,0008.42,0002.47,0001.36
2022-05-13 12:35:00,,0826.1,5.00,0.00,26.8,26.2,00.0,35.7,28.6,07.8,0000.0,0008.42,0002.50,0001.38
2022-05-13 12:36:00,,0826.2,5.00,0.00,26.8,26.1,00.0,35.7,28.6,08.0,0000.0,0008.48,0002.49,0001.38
2022-05-13 12:37:00,,0826.1,4.99,0.00,26.8,26.1,00.0,35.7,28.6,08.0,0000.0,0008.02,0002.53,0001.38
2022-05-13 12:38:00,,0826.3,4.99,0.00,26.8,26.1,00.0,35.7,28.6,08.0,0000.0,0007.83,0002.60,0001.37
2022-05-13 12:39:00,,0826.4,5.01,0.00,26.7,26.1,00.0,35.7,28.5,08.3,0000.0,0007.76,0002.55,0001.34
2022-05-13 12:40:00,,0826.2,5.00,0.00,26.7,26.0,00.0,35.7,28.5,07.9,0000.0,0008.31,0002.61,0001.35
2022-05-13 12:41:00,,0826.1,5.00,0.00,26.7,25.9,00.0,35.7,28.5,07.7,0000.0,0008.60,0002.57,0001.35
2022-05-13 12:42:00,,0826.2,4.99,0.00,26.7,25.9,00.0,35.7,28.4,07.8,0000.0,0008.15,0002.50,0001.33
2022-05-13 12:43:00,,0826.2,5.01,0.00,26.7,25.9,00.0,35.7,28.4,07.7,0000.0,0007.90,0002.47,0001.32
2022-05-13 12:44:00,,0826.2,5.00,0.00,26.6,25.9,00.0,35.7,28.4,07.9,0000.0,0007.59,0002.46,0001.33
2022-05-13 12:45:00,,0826.2,5.00,0.00,26.6,25.9,00.0,35.7,28.4,07.8,0000.0,0007.44,0002.42,0001.33
2022-05-13 12:46:00,,0826.3,4.99,0.00,26.6,25.9,00.0,35.7,28.4,08.0,0000.0,0007.45,0002.42,0001.32
2022-05-13 12:47:00,,0826.4,5.00,0.00,26.6,25.9,00.0,35.6,28.4,07.9,0000.0,0007.50,0002.49,0001.32
2022-05-13 12:48:00,,0826.3,5.01,0.00,26.6,25.9,00.0,35.6,28.4,07.9,0000.0,0007.53,0002.49,0001.33
2022-05-13 12:49:00,,0826.3,5.00,0.00,26.6,25.9,00.0,35.6,28.4,08.1,0000.0,0007.57,0002.44,0001.33
2022-05-13 12:50:00,,0826.4,5.00,0.00,26.6,25.8,00.0,35.6,28.4,08.3,0000.0,0007.90,0002.47,0001.34
2022-05-13 12:51:00,,0826.5,5.00,0.00,26.6,25.9,00.0,35.6,28.4,08.4,0000.0,0007.48,0002.47,0001.35
2022-05-13 12:52:00,,0826.4,5.00,0.00,26.6,25.9,00.0,35.6,28.4,08.3,0000.0,0007.22,0002.54,0001.36
2022-05-13 12:53:00,,0826.4,5.01,0.00,26.6,25.9,00.0,35.6,28.4,08.0,0000.0,0006.75,0002.57,0001.38
2022-05-13 12:54:00,,0826.4,4.99,0.00,26.6,25.9,00.0,35.6,28.4,07.9,0000.0,0006.80,0002.58,0001.38
2022-05-13 12:55:00,,0826.4,4.99,0.00,26.6,25.9,00.0,35.6,28.4,08.1,0000.0,0006.64,0002.67,0001.39
2022-05-13 12:56:00,,0826.4,5.01,0.00,26.6,25.9,00.0,35.6,28.5,08.0,0000.0,0006.61,0002.73,0001.40
2022-05-13 12:57:00,,0826.5,4.99,0.00,26.6,26.0,00.0,35.6,28.5,08.3,0000.0,0006.61,0002.71,0001.40
2022-05-13 12:58:00,,0826.5,5.00,0.00,26.6,26.0,00.0,35.6,28.5,08.3,0000.0,0006.76,0002.71,0001.40
2022-05-13 12:59:00,,0826.5,5.01,0.00,26.6,26.0,00.0,35.6,28.5,08.0,0000.0,0006.90,0002.78,0001.40
